Regional Weather Roundup
Issued by NWS Binghamton, NY

Home | Current Version | Previous Version | Text Only | Print | Product List | Glossary On
Versions: 1 2 3 4 5 6 7 8 9 10 11 12 13 14 15 16 17 18 19 20 21 22 23 24 25 26 27 28 29 30 31 32 33 34 35 36 37 38 39 40 41 42 43 44 45 46 47
000
ASUS41 KBGM 290610
RWRBGM
RWRBGM
BINGHAMTON REGIONAL WEATHER ROUNDUP
NATIONAL WEATHER SERVICE BINGHAMTON NY
200 AM EDT WED JUL 29 2015

Note: "fair" indicates few or no clouds below 12,000 feet with no
significant weather and/or obstructions to visibility.

* = Station(s) that does not report precipitation, such as rain,
snow, etc, also no thunder or fog.

!NYZ009-015>018-022>025-036-037-044>046-055>057-062-290700
...CENTRAL NEW YORK...

CITY           SKY/WX    TMP DP  RH WIND       PRES   REMARKS
BINGHAMTON     CLEAR     69  62  78 CALM      30.06S
CORTLAND       FAIR      61  61 100 CALM      30.07R
DANSVILLE      PTCLDY    68  65  90 SE8       30.04S
ELMIRA         PTCLDY    67  66  97 SW3       30.04R
ITHACA         PTCLDY    64  61  90 E5        30.06S
MONTICELLO     CLEAR     64  63  94 N3        30.06S
NORWICH        CLEAR     59  57  94 CALM      30.05S
ONEONTA        CLEAR     64  63  94 CALM      30.06F
PENN YAN       FOG       70  66  87 SW5       30.04S VSB 1
ROME           CLEAR     65  63  93 E6        30.01S
SIDNEY         CLEAR     63  63 100 CALM      30.04F FOG
SYRACUSE       PTCLDY    68  62  81 SE3       30.00R
$$

!PAZ038>040-043-044-047-048-072-290700
...NORTHEAST PENNSYLVANIA...

CITY           SKY/WX    TMP DP  RH WIND       PRES   REMARKS
HAZLETON       CLEAR     61  61 100 CALM      30.10S
SCRANTON       CLEAR     71  63  75 SE7       30.03F
$$
&&
KEY
WCI = WIND CHILL INDEX
VSB = VISIBILITY
HX  = HEAT INDEX
$$



USA.gov is the U.S. government's official web portal to all federal, state and local government web resources and services.